07-08-2023, 00:00:08,    321,    0.0,   10.9,   0.00,   0.00, 1016.7,    0.7, -999.0
07-08-2023, 00:00:18,    321,    0.0,   11.0,   0.00,   0.00, 1016.7,    0.4, -999.0
07-08-2023, 00:00:28,    321,    0.0,   11.0,   0.00,   0.00, 1016.7,    0.6, -999.0
07-08-2023, 00:00:38,    321,    0.0,   11.0,   0.00,   0.00, 1016.7,    0.7, -999.0
07-08-2023, 00:00:48,    321,    0.0,   10.9,   0.00,   0.00, 1016.7,    0.3, -999.0
07-08-2023, 00:00:58,    321,    0.0,   10.9,   0.00,   0.00, 1016.7,    0.6, -999.0
07-08-2023, 00:01:08,    321,    0.0,   10.9,   0.00,   0.00, 1016.7,    0.6, -999.0
07-08-2023, 00:01:18,    321,    0.0,   10.9,   0.00,   0.00, 1016.7,    0.6, -999.0
07-08-2023, 00:01:28,    321,    0.0,   10.9,   0.00,   0.00, 1016.7,    0.6, -999.0
07-08-2023, 00:01:38,    321,    0.0,   10.9,   0.00,   0.00, 1016.7,    0.6, -999.0
07-08-2023, 00:01:48,    321,    0.0,   10.9,   0.00,   0.00, 1016.7,    0.5, -999.0
07-08-2023, 00:01:58,    321,    0.0,   10.9,   0.00,   0.00, 1016.7,    0.5, -999.0
07-08-2023, 00:02:08,    321,    0.0,   10.8,   0.00,   0.00, 1016.7,    0.7, -999.0
07-08-2023, 00:02:18,    321,    0.0,   10.8,   0.00,   0.00, 1016.7,    0.5, -999.0
07-08-2023, 00:02:28,    321,    0.0,   10.9,   0.00,   0.00, 1016.7,    0.4, -999.0
07-08-2023, 00:02:38,    321,    0.0,   10.9,   0.00,   0.00, 1016.7,    0.7, -999.0
07-08-2023, 00:02:48,    321,    0.0,   11.0,   0.00,   0.00, 1016.7,    0.4, -999.0
07-08-2023, 00:02:57,    321,    0.0,   11.0,   0.00,   0.00, 1016.7,    0.6, -999.0
07-08-2023, 00:03:08,    321,    0.0,   11.0,   0.00,   0.00, 1016.7,    0.5, -999.0
07-08-2023, 00:03:18,    319,    0.0,   11.0,   0.00,   0.00, 1016.7,    0.6, -999.0
07-08-2023, 00:03:28,    321,    0.0,   11.0,   0.00,   0.00, 1016.7,    0.6, -999.0
07-08-2023, 00:03:37,    321,    0.0,   10.9,   0.00,   0.00, 1016.7,    0.5, -999.0
07-08-2023, 00:03:48,    321,    0.0,   10.9,   0.00,   0.00, 1016.7,    0.7, -999.0
07-08-2023, 00:03:58,    321,    0.0,   10.9,   0.00,   0.00, 1016.7,    0.8, -999.0
07-08-2023, 00:04:07,    321,    0.0,   11.0,   0.00,   0.00, 1016.7,    0.7, -999.0
07-08-2023, 00:04:17,    321,    0.0,   11.0,   0.00,   0.00, 1016.7,    0.5, -999.0
07-08-2023, 00:04:28,    321,    0.0,   11.0,   0.00,   0.00, 1016.7,    0.6, -999.0
07-08-2023, 00:04:37,    321,    0.0,   10.9,   0.00,   0.00, 1016.7,    0.7, -999.0
07-08-2023, 00:04:47,    321,    0.0,   11.0,   0.00,   0.00, 1016.7,    0.8, -999.0
07-08-2023, 00:04:57,    321,    0.0,   10.9,   0.00,   0.00, 1016.7,    0.7, -999.0
07-08-2023, 00:05:08,    321,    0.0,   10.9,   0.00,   0.00, 1016.7,    0.6, -999.0
07-08-2023, 00:05:17,    321,    0.0,   10.9,   0.00,   0.00, 1016.7,    0.6, -999.0
07-08-2023, 00:05:27,    321,    0.0,   10.9,   0.00,   0.00, 1016.7,    0.6, -999.0
07-08-2023, 00:05:37,    321,    0.0,   10.9,   0.00,   0.00, 1016.7,    0.6, -999.0
07-08-2023, 00:05:47,    321,    0.0,   11.0,   0.00,   0.00, 1016.7,    0.7, -999.0
07-08-2023, 00:05:57,    321,    0.0,   10.9,   0.00,   0.00, 1016.7,    0.5, -999.0
07-08-2023, 00:06:07,    298,    0.0,   11.0,   0.00,   0.00, 1016.7,    0.4, -999.0
07-08-2023, 00:06:17,    298,    0.0,   11.0,   0.00,   0.00, 1016.7,    0.5, -999.0
07-08-2023, 00:06:27,    298,    0.0,   10.9,   0.00,   0.00, 1016.7,    0.6, -999.0
07-08-2023, 00:06:37,    298,    0.0,   10.9,   0.00,   0.00, 1016.7,    0.5, -999.0
07-08-2023, 00:06:47,    298,    0.0,   11.0,   0.00,   0.00, 1016.7,    0.6, -999.0
07-08-2023, 00:06:57,    298,    0.0,   10.9,   0.00,   0.00, 1016.7,    0.8, -999.0
07-08-2023, 00:07:07,    298,    0.0,   10.9,   0.00,   0.00, 1016.7,    0.7, -999.0
07-08-2023, 00:07:18,    298,    0.0,   10.9,   0.00,   0.00, 1016.7,    0.5, -999.0
07-08-2023, 00:07:27,    298,    0.0,   11.0,   0.00,   0.00, 1016.7,    0.7, -999.0
07-08-2023, 00:07:37,    298,    0.0,   10.9,   0.00,   0.00, 1016.7,    0.6, -999.0
07-08-2023, 00:07:47,    298,    0.0,   11.0,   0.00,   0.00, 1016.7,    0.5, -999.0
07-08-2023, 00:07:57,    298,    0.0,   11.0,   0.00,   0.00, 1016.7,    0.5, -999.0
07-08-2023, 00:08:07,    298,    0.0,   11.0,   0.00,   0.00, 1016.7,    0.6, -999.0
07-08-2023, 00:08:17,    298,    0.0,   11.0,   0.00,   0.00, 1016.7,    0.7, -999.0
07-08-2023, 00:08:27,    298,    0.0,   11.0,   0.00,   0.00, 1016.7,    0.4, -999.0
07-08-2023, 00:08:37,    302,    0.0,   11.0,   0.00,   0.00, 1016.7,    0.8, -999.0
07-08-2023, 00:08:47,    298,    0.0,   11.0,   0.00,   0.00, 1016.7,    0.8, -999.0
07-08-2023, 00:08:57,    298,    0.0,   11.0,   0.00,   0.00, 1016.7,    0.4, -999.0
07-08-2023, 00:09:07,    298,    0.0,   11.0,   0.00,   0.00, 1016.7,    0.6, -999.0
07-08-2023, 00:09:17,    298,    0.0,   11.0,   0.00,   0.00, 1016.7,    0.6, -999.0
07-08-2023, 00:09:27,    298,    0.0,   11.0,   0.00,   0.00, 1016.7,    0.5, -999.0
07-08-2023, 00:09:37,    299,    0.0,   11.0,   0.00,   0.00, 1016.7,    0.6, -999.0
07-08-2023, 00:09:47,    298,    0.0,   11.0,   0.00,   0.00, 1016.7,    0.6, -999.0
07-08-2023, 00:09:57,    298,    0.0,   11.0,   0.00,   0.00, 1016.7,    0.5, -999.0
07-08-2023, 00:10:07,    298,    0.0,   11.0,   0.00,   0.00, 1016.7,    0.7, -999.0
07-08-2023, 00:10:16,    298,    0.0,   11.0,   0.00,   0.00, 1016.7,    0.5, -999.0
07-08-2023, 00:10:27,    298,    0.0,   11.0,   0.00,   0.00, 1016.7,    0.7, -999.0
07-08-2023, 00:10:37,    298,    0.0,   11.0,   0.00,   0.00, 1016.7,    0.6, -999.0
07-08-2023, 00:10:46,    298,    0.0,   11.1,   0.00,   0.00, 1016.7,    0.6, -999.0
07-08-2023, 00:10:56,    297,    0.0,   11.0,   0.00,   0.00, 1016.7,    0.5, -999.0
07-08-2023, 00:11:07,    297,    0.0,   11.1,   0.00,   0.00, 1016.7,    0.7, -999.0
07-08-2023, 00:11:17,    297,    0.0,   11.0,   0.00,   0.00, 1016.7,    0.4, -999.0
07-08-2023, 00:11:26,    297,    0.0,   10.9,   0.00,   0.00, 1016.7,    0.7, -999.0
07-08-2023, 00:11:36,    297,    0.0,   10.9,   0.00,   0.00, 1016.7,    0.8, -999.0
07-08-2023, 00:11:47,    297,    0.0,   11.0,   0.00,   0.00, 1016.7,    0.6, -999.0
07-08-2023, 00:11:56,    297,    0.0,   11.0,   0.00,   0.00, 1016.7,    0.6, -999.0
07-08-2023, 00:12:06,    297,    0.0,   11.0,   0.00,   0.00, 1016.7,    0.5, -999.0
07-08-2023, 00:12:16,    297,    0.0,   11.0,   0.00,   0.00, 1016.7,    0.6, -999.0
07-08-2023, 00:12:26,    297,    0.0,   10.9,   0.00,   0.00, 1016.7,    0.6, -999.0
07-08-2023, 00:12:36,    297,    0.0,   11.0,   0.00,   0.00, 1016.7,    0.6, -999.0
07-08-2023, 00:12:46,    297,    0.0,   11.0,   0.00,   0.00, 1016.7,    0.6, -999.0
07-08-2023, 00:12:56,    297,    0.0,   11.0,   0.00,   0.00, 1016.7,    0.6, -999.0
07-08-2023, 00:13:06,    296,    0.0,   10.9,   0.00,   0.00, 1016.7,    0.6, -999.0
07-08-2023, 00:13:16,    297,    0.0,   11.0,   0.00,   0.00, 1016.7,    0.5, -999.0
07-08-2023, 00:13:26,    297,    0.0,   10.9,   0.00,   0.00, 1016.7,    0.6, -999.0
07-08-2023, 00:13:36,    297,    0.0,   10.9,   0.00,   0.00, 1016.7,    0.6, -999.0
07-08-2023, 00:13:46,    297,    0.0,   10.9,   0.00,   0.00, 1016.7,    0.7, -999.0
07-08-2023, 00:13:56,    297,    0.0,   11.0,   0.00,   0.00, 1016.7,    0.5, -999.0
07-08-2023, 00:14:06,    297,    0.0,   10.9,   0.00,   0.00, 1016.7,    0.4, -999.0
07-08-2023, 00:14:16,    297,    0.0,   11.0,   0.00,   0.00, 1016.7,    0.7, -999.0
07-08-2023, 00:14:26,    298,    0.0,   10.9,   0.00,   0.00, 1016.7,    0.5, -999.0
07-08-2023, 00:14:36,    297,    0.0,   11.0,   0.00,   0.00, 1016.7,    0.5, -999.0
07-08-2023, 00:14:46,    297,    0.0,   10.9,   0.00,   0.00, 1016.7,    0.7, -999.0
07-08-2023, 00:14:56,    297,    0.0,   10.9,   0.00,   0.00, 1016.7,    0.6, -999.0
07-08-2023, 00:15:06,    297,    0.0,   10.8,   0.00,   0.00, 1016.7,    0.7, -999.0
07-08-2023, 00:15:16,    297,    0.0,   10.9,   0.00,   0.00, 1016.7,    0.5, -999.0
07-08-2023, 00:15:26,    297,    0.0,   10.9,   0.00,   0.00, 1016.7,    0.7, -999.0
07-08-2023, 00:15:36,    297,    0.0,   10.9,   0.00,   0.00, 1016.7,    0.7, -999.0
07-08-2023, 00:15:46,    297,    0.0,   10.9,   0.00,   0.00, 1016.7,    0.7, -999.0
07-08-2023, 00:15:56,    297,    0.0,   10.8,   0.00,   0.00, 1016.7,    0.7, -999.0
07-08-2023, 00:16:06,    295,    0.0,   10.8,   0.00,   0.00, 1016.7,    0.8, -999.0
07-08-2023, 00:16:16,    297,    0.0,   10.9,   0.00,   0.00, 1016.7,    0.6, -999.0
07-08-2023, 00:16:26,    297,    0.0,   10.8,   0.00,   0.00, 1016.7,    0.5, -999.0
07-08-2023, 00:16:36,    297,    0.0,   10.8,   0.00,   0.00, 1016.7,    0.7, -999.0
07-08-2023, 00:16:46,    297,    0.0,   10.8,   0.00,   0.00, 1016.7,    0.6, -999.0
07-08-2023, 00:16:56,    297,    0.0,   10.8,   0.00,   0.00, 1016.7,    0.7, -999.0
07-08-2023, 00:17:06,    297,    0.0,   10.8,   0.00,   0.00, 1016.7,    0.6, -999.0
07-08-2023, 00:17:16,    297,    0.0,   10.8,   0.00,   0.00, 1016.7,    0.7, -999.0
07-08-2023, 00:17:26,    297,    0.0,   10.7,   0.00,   0.00, 1016.7,    0.4, -999.0
07-08-2023, 00:17:38,    297,    0.0,   10.8,   0.00,   0.00, 1016.7,    0.6, -999.0
07-08-2023, 00:17:46,    298,    0.0,   10.8,   0.00,   0.00, 1016.7,    0.3, -999.0
07-08-2023, 00:17:56,    297,    0.0,   10.8,   0.00,   0.00, 1016.7,    0.6, -999.0
07-08-2023, 00:18:05,    297,    0.0,   10.8,   0.00,   0.00, 1016.7,    0.6, -999.0
07-08-2023, 00:18:16,    296,    0.0,   10.9,   0.00,   0.00, 1016.7,    0.4, -999.0
07-08-2023, 00:18:26,    297,    0.0,   10.8,   0.00,   0.00, 1016.7,    0.5, -999.0
07-08-2023, 00:18:35,    297,    0.0,   10.9,   0.00,   0.00, 1016.7,    0.6, -999.0
07-08-2023, 00:18:45,    297,    0.0,   10.9,   0.00,   0.00, 1016.7,    0.7, -999.0
07-08-2023, 00:18:56,    296,    0.0,   10.8,   0.00,   0.00, 1016.7,    0.5, -999.0
07-08-2023, 00:19:05,    297,    0.0,   10.8,   0.00,   0.00, 1016.7,    0.4, -999.0
07-08-2023, 00:19:15,    297,    0.0,   10.8,   0.00,   0.00, 1016.7,    0.6, -999.0
07-08-2023, 00:19:25,    297,    0.0,   10.8,   0.00,   0.00, 1016.7,    0.7, -999.0
07-08-2023, 00:19:36,    297,    0.0,   10.8,   0.00,   0.00, 1016.7,    0.6, -999.0
07-08-2023, 00:19:45,    297,    0.0,   10.8,   0.00,   0.00, 1016.7,    0.4, -999.0
07-08-2023, 00:19:55,    297,    0.0,   10.8,   0.00,   0.00, 1016.7,    0.5, -999.0
07-08-2023, 00:20:06,    297,    0.0,   10.8,   0.00,   0.00, 1016.7,    0.7, -999.0
07-08-2023, 00:20:15,    297,    0.0,   10.8,   0.00,   0.00, 1016.7,    0.5, -999.0
07-08-2023, 00:20:25,    296,    0.0,   10.8,   0.00,   0.00, 1016.7,    0.6, -999.0
07-08-2023, 00:20:35,    297,    0.0,   10.8,   0.00,   0.00, 1016.7,    0.5, -999.0
07-08-2023, 00:20:45,    297,    0.0,   10.8,   0.00,   0.00, 1016.7,    0.6, -999.0
07-08-2023, 00:20:55,    297,    0.0,   10.7,   0.00,   0.00, 1016.7,    0.6, -999.0
07-08-2023, 00:21:05,    297,    0.0,   10.8,   0.00,   0.00, 1016.7,    0.5, -999.0
07-08-2023, 00:21:15,    297,    0.0,   10.7,   0.00,   0.00, 1016.7,    0.5, -999.0
07-08-2023, 00:21:25,    296,    0.0,   10.7,   0.00,   0.00, 1016.7,    0.5, -999.0
07-08-2023, 00:21:35,    297,    0.0,   10.7,   0.00,   0.00, 1016.7,    0.6, -999.0
07-08-2023, 00:21:45,    296,    0.0,   10.7,   0.00,   0.00, 1016.7,    0.5, -999.0
07-08-2023, 00:21:55,    296,    0.0,   10.7,   0.00,   0.00, 1016.7,    0.7, -999.0
07-08-2023, 00:22:05,    296,    0.0,   10.6,   0.00,   0.00, 1016.7,    0.6, -999.0
07-08-2023, 00:22:15,    296,    0.0,   10.7,   0.00,   0.00, 1016.7,    0.5, -999.0
07-08-2023, 00:22:25,    296,    0.0,   10.7,   0.00,   0.00, 1016.7,    0.6, -999.0
07-08-2023, 00:22:35,    295,    0.0,   10.7,   0.00,   0.00, 1016.7,    0.7, -999.0
07-08-2023, 00:22:45,    296,    0.0,   10.7,   0.00,   0.00, 1016.7,    0.5, -999.0
07-08-2023, 00:22:55,    296,    0.0,   10.7,   0.00,   0.00, 1016.7,    0.5, -999.0
07-08-2023, 00:23:05,    296,    0.0,   10.6,   0.00,   0.00, 1016.7,    0.6, -999.0
07-08-2023, 00:23:15,    296,    0.0,   10.6,   0.00,   0.00, 1016.7,    0.5, -999.0
07-08-2023, 00:23:25,    296,    0.0,   10.7,   0.00,   0.00, 1016.7,    0.4, -999.0
07-08-2023, 00:23:35,    296,    0.0,   10.7,   0.00,   0.00, 1016.7,    0.5, -999.0
07-08-2023, 00:23:45,    296,    0.0,   10.7,   0.00,   0.00, 1016.7,    0.5, -999.0
07-08-2023, 00:23:55,    296,    0.0,   10.6,   0.00,   0.00, 1016.7,    0.7, -999.0
07-08-2023, 00:24:05,    296,    0.0,   10.7,   0.00,   0.00, 1016.7,    0.4, -999.0
07-08-2023, 00:24:15,    296,    0.0,   10.7,   0.00,   0.00, 1016.7,    0.5, -999.0
07-08-2023, 00:24:25,    297,    0.0,   10.5,   0.00,   0.00, 1016.7,    0.7, -999.0
07-08-2023, 00:24:35,    296,    0.0,   10.7,   0.00,   0.00, 1016.7,    0.5, -999.0
07-08-2023, 00:24:45,    296,    0.0,   10.7,   0.00,   0.00, 1016.7,    0.3, -999.0
07-08-2023, 00:24:55,    296,    0.0,   10.6,   0.00,   0.00, 1016.7,    0.6, -999.0
07-08-2023, 00:25:05,    296,    0.0,   10.7,   0.00,   0.00, 1016.7,    0.6, -999.0
07-08-2023, 00:25:14,    297,    0.0,   10.6,   0.00,   0.00, 1016.7,    0.5, -999.0
07-08-2023, 00:25:25,    296,    0.0,   10.6,   0.00,   0.00, 1016.7,    0.6, -999.0
07-08-2023, 00:25:35,    296,    0.0,   10.6,   0.00,   0.00, 1016.7,    0.9, -999.0
07-08-2023, 00:25:44,    296,    0.0,   10.6,   0.00,   0.00, 1016.7,    0.5, -999.0
07-08-2023, 00:25:54,    296,    0.0,   10.6,   0.00,   0.00, 1016.7,    0.5, -999.0
07-08-2023, 00:26:05,    296,    0.0,   10.7,   0.00,   0.00, 1016.7,    0.6, -999.0
07-08-2023, 00:26:15,    296,    0.0,   10.6,   0.00,   0.00, 1016.7,    0.6, -999.0
07-08-2023, 00:26:24,    296,    0.0,   10.6,   0.00,   0.00, 1016.7,    0.5, -999.0
07-08-2023, 00:26:34,    297,    0.0,   10.6,   0.00,   0.00, 1016.7,    0.5, -999.0
07-08-2023, 00:26:45,    296,    0.0,   10.6,   0.00,   0.00, 1016.7,    0.7, -999.0
07-08-2023, 00:26:54,    296,    0.0,   10.6,   0.00,   0.00, 1016.7,    0.6, -999.0
07-08-2023, 00:27:04,    296,    0.0,   10.5,   0.00,   0.00, 1016.7,    0.6, -999.0
07-08-2023, 00:27:14,    296,    0.0,   10.5,   0.00,   0.00, 1016.7,    0.6, -999.0
07-08-2023, 00:27:24,    296,    0.0,   10.6,   0.00,   0.00, 1016.7,    0.8, -999.0
07-08-2023, 00:27:34,    296,    0.0,   10.6,   0.00,   0.00, 1016.7,    0.5, -999.0
07-08-2023, 00:27:44,    296,    0.0,   10.6,   0.00,   0.00, 1016.7,    0.6, -999.0
07-08-2023, 00:27:55,    296,    0.0,   10.6,   0.00,   0.00, 1016.7,    0.7, -999.0
07-08-2023, 00:28:04,    297,    0.0,   10.6,   0.00,   0.00, 1016.7,    0.6, -999.0
07-08-2023, 00:28:14,    296,    0.0,   10.6,   0.00,   0.00, 1016.7,    0.5, -999.0
07-08-2023, 00:28:24,    296,    0.0,   10.6,   0.00,   0.00, 1016.7,    0.5, -999.0
07-08-2023, 00:28:34,    296,    0.0,   10.6,   0.00,   0.00, 1016.7,    0.7, -999.0
07-08-2023, 00:28:44,    296,    0.0,   10.6,   0.00,   0.00, 1016.7,    0.4, -999.0
07-08-2023, 00:28:54,    296,    0.0,   10.6,   0.00,   0.00, 1016.7,    0.5, -999.0
07-08-2023, 00:29:04,    296,    0.0,   10.5,   0.00,   0.00, 1016.7,    0.3, -999.0
07-08-2023, 00:29:14,    296,    0.0,   10.6,   0.00,   0.00, 1016.7,    0.4, -999.0
07-08-2023, 00:29:24,    296,    0.0,   10.6,   0.00,   0.00, 1016.7,    0.5, -999.0
07-08-2023, 00:29:34,    296,    0.0,   10.5,   0.00,   0.00, 1016.7,    0.5, -999.0
07-08-2023, 00:29:44,    296,    0.0,   10.5,   0.00,   0.00, 1016.7,    0.3, -999.0
07-08-2023, 00:29:54,    296,    0.0,   10.5,   0.00,   0.00, 1016.7,    0.8, -999.0
07-08-2023, 00:30:04,    296,    0.0,   10.5,   0.00,   0.00, 1016.7,    0.4, -999.0
07-08-2023, 00:30:14,    296,    0.0,   10.5,   0.00,   0.00, 1016.7,    0.5, -999.0
07-08-2023, 00:30:24,    296,    0.0,   10.5,   0.00,   0.00, 1016.7,    0.9, -999.0
07-08-2023, 00:30:34,    265,    0.0,   10.5,   0.00,   0.00, 1016.8,    0.5, -999.0
07-08-2023, 00:30:44,    265,    0.0,   10.5,   0.00,   0.00, 1016.7,    0.6, -999.0
07-08-2023, 00:30:54,    265,    0.0,   10.5,   0.00,   0.00, 1016.7,    0.6, -999.0
07-08-2023, 00:31:04,    265,    0.0,   10.5,   0.00,   0.00, 1016.7,    0.5, -999.0
07-08-2023, 00:31:14,    265,    0.0,   10.5,   0.00,   0.00, 1016.7,    0.5, -999.0
07-08-2023, 00:31:24,    265,    0.0,   10.4,   0.00,   0.00, 1016.7,    0.5, -999.0
07-08-2023, 00:31:34,    265,    0.0,   10.4,   0.00,   0.00, 1016.7,    0.8, -999.0
07-08-2023, 00:31:44,    268,    0.0,   10.5,   0.00,   0.00, 1016.7,    0.5, -999.0
07-08-2023, 00:31:53,    268,    0.0,   10.4,   0.00,   0.00, 1016.7,    0.7, -999.0
07-08-2023, 00:32:04,    268,    0.0,   10.4,   0.00,   0.00, 1016.7,    0.8, -999.0
07-08-2023, 00:32:14,    268,    0.0,   10.3,   0.00,   0.00, 1016.7,    0.7, -999.0
07-08-2023, 00:32:24,    268,    0.0,   10.4,   0.00,   0.00, 1016.7,    0.8, -999.0
07-08-2023, 00:32:34,    268,    0.0,   10.4,   0.00,   0.00, 1016.7,    0.6, -999.0
07-08-2023, 00:32:44,    267,    0.0,   10.3,   0.00,   0.00, 1016.7,    0.8, -999.0
07-08-2023, 00:32:54,    267,    0.0,   10.3,   0.00,   0.00, 1016.7,    0.5, -999.0
07-08-2023, 00:33:03,    267,    0.0,   10.3,   0.00,   0.00, 1016.7,    0.7, -999.0
07-08-2023, 00:33:14,    268,    0.0,   10.4,   0.00,   0.00, 1016.7,    0.7, -999.0
07-08-2023, 00:33:24,    267,    0.0,   10.3,   0.00,   0.00, 1016.7,    0.6, -999.0
07-08-2023, 00:33:33,    267,    0.0,   10.4,   0.00,   0.00, 1016.7,    0.7, -999.0
07-08-2023, 00:33:43,    267,    0.0,   10.3,   0.00,   0.00, 1016.7,    0.5, -999.0
07-08-2023, 00:33:54,    268,    0.0,   10.3,   0.00,   0.00, 1016.7,    0.6, -999.0
07-08-2023, 00:34:04,    268,    0.0,   10.3,   0.00,   0.00, 1016.7,    0.6, -999.0
07-08-2023, 00:34:13,    267,    0.0,   10.3,   0.00,   0.00, 1016.7,    0.6, -999.0
07-08-2023, 00:34:23,    267,    0.0,   10.1,   0.00,   0.00, 1016.7,    0.6, -999.0
07-08-2023, 00:34:34,    267,    0.0,   10.2,   0.00,   0.00, 1016.7,    0.4, -999.0
07-08-2023, 00:34:43,    267,    0.0,   10.3,   0.00,   0.00, 1016.7,    0.4, -999.0
07-08-2023, 00:34:53,    267,    0.0,   10.3,   0.00,   0.00, 1016.7,    0.7, -999.0
07-08-2023, 00:35:03,    267,    0.0,   10.3,   0.00,   0.00, 1016.7,    0.6, -999.0
07-08-2023, 00:35:13,    268,    0.0,   10.3,   0.00,   0.00, 1016.7,    0.5, -999.0
07-08-2023, 00:35:23,    267,    0.0,   10.3,   0.00,   0.00, 1016.7,    0.8, -999.0
07-08-2023, 00:35:33,    266,    0.8,   10.3,   0.00,   0.00, 1016.8,    0.7, -999.0
07-08-2023, 00:35:43,    266,    0.5,   10.3,   0.00,   0.00, 1016.8,    0.6, -999.0
07-08-2023, 00:35:53,    266,    0.4,   10.3,   0.00,   0.00, 1016.8,    0.4, -999.0
07-08-2023, 00:36:03,    268,    0.0,   10.3,   0.00,   0.00, 1016.7,    0.6, -999.0
07-08-2023, 00:36:13,    268,    0.0,   10.3,   0.00,   0.00, 1016.7,    0.6, -999.0
07-08-2023, 00:36:23,    267,    0.0,   10.2,   0.00,   0.00, 1016.7,    0.7, -999.0
07-08-2023, 00:36:33,    268,    0.0,   10.3,   0.00,   0.00, 1016.7,    0.6, -999.0
07-08-2023, 00:36:43,    268,    0.1,   10.3,   0.00,   0.00, 1016.7,    0.7, -999.0
07-08-2023, 00:36:53,    268,    0.7,   10.4,   0.00,   0.00, 1016.8,    0.8, -999.0
07-08-2023, 00:37:03,    270,    0.6,   10.3,   0.00,   0.00, 1016.8,    0.9, -999.0
07-08-2023, 00:37:13,    270,    0.3,   10.3,   0.00,   0.00, 1016.8,    0.5, -999.0
07-08-2023, 00:37:23,    270,    0.0,   10.3,   0.00,   0.00, 1016.7,    0.7, -999.0
07-08-2023, 00:37:33,    270,    0.0,   10.1,   0.00,   0.00, 1016.7,    0.6, -999.0
07-08-2023, 00:37:43,    270,    0.0,   10.2,   0.00,   0.00, 1016.7,    0.6, -999.0
07-08-2023, 00:37:53,    270,    0.0,   10.2,   0.00,   0.00, 1016.7,    0.6, -999.0
07-08-2023, 00:38:03,    270,    0.1,   10.2,   0.00,   0.00, 1016.7,    0.5, -999.0
07-08-2023, 00:38:13,    270,    0.0,   10.1,   0.00,   0.00, 1016.6,    0.7, -999.0
07-08-2023, 00:38:23,    270,    0.0,   10.2,   0.00,   0.00, 1016.7,    0.4, -999.0
07-08-2023, 00:38:33,    270,    0.0,   10.1,   0.00,   0.00, 1016.7,    0.6, -999.0
07-08-2023, 00:38:43,    270,    0.0,   10.2,   0.00,   0.00, 1016.7,    0.7, -999.0
07-08-2023, 00:38:53,    270,    0.0,   10.2,   0.00,   0.00, 1016.6,    0.6, -999.0
07-08-2023, 00:39:03,    270,    0.4,   10.2,   0.00,   0.00, 1016.8,    0.7, -999.0
07-08-2023, 00:39:13,    270,    0.3,   10.2,   0.00,   0.00, 1016.7,    0.5, -999.0
07-08-2023, 00:39:23,    270,    0.0,   10.1,   0.00,   0.00, 1016.6,    0.5, -999.0
07-08-2023, 00:39:32,    270,    0.0,   10.1,   0.00,   0.00, 1016.6,    0.5, -999.0
07-08-2023, 00:39:43,    269,    0.0,   10.2,   0.00,   0.00, 1016.7,    0.8, -999.0
07-08-2023, 00:39:53,    269,    0.0,   10.2,   0.00,   0.00, 1016.7,    0.8, -999.0
07-08-2023, 00:40:03,    269,    0.0,   10.2,   0.00,   0.00, 1016.7,    0.8, -999.0
07-08-2023, 00:40:12,    269,    0.0,   10.3,   0.00,   0.00, 1016.7,    0.6, -999.0
07-08-2023, 00:40:23,    269,    0.0,   10.1,   0.00,   0.00, 1016.6,    0.6, -999.0
07-08-2023, 00:40:33,    269,    0.0,   10.2,   0.00,   0.00, 1016.7,    0.6, -999.0
07-08-2023, 00:40:42,    269,    0.0,   10.2,   0.00,   0.00, 1016.7,    0.7, -999.0
07-08-2023, 00:40:52,    269,    0.0,   10.2,   0.00,   0.00, 1016.7,    0.6, -999.0
07-08-2023, 00:41:03,    269,    0.0,   10.3,   0.00,   0.00, 1016.7,    0.5, -999.0
07-08-2023, 00:41:12,    269,    0.0,   10.2,   0.00,   0.00, 1016.7,    0.5, -999.0
07-08-2023, 00:41:22,    269,    0.0,   10.3,   0.00,   0.00, 1016.7,    0.6, -999.0
07-08-2023, 00:41:32,    269,    0.0,   10.2,   0.00,   0.00, 1016.7,    0.6, -999.0
07-08-2023, 00:41:43,    269,    0.0,   10.2,   0.00,   0.00, 1016.7,    0.5, -999.0
07-08-2023, 00:41:52,    269,    0.6,   10.2,   0.00,   0.00, 1016.8,    0.6, -999.0
07-08-2023, 00:42:02,    269,    0.5,   10.3,   0.00,   0.00, 1016.8,    0.5, -999.0
07-08-2023, 00:42:12,    268,    0.0,   10.3,   0.00,   0.00, 1016.7,    0.6, -999.0
07-08-2023, 00:42:22,    266,    0.0,   10.2,   0.00,   0.00, 1016.7,    0.5, -999.0
07-08-2023, 00:42:32,    268,    0.0,   10.2,   0.00,   0.00, 1016.7,    0.5, -999.0
07-08-2023, 00:42:42,    268,    0.0,   10.3,   0.00,   0.00, 1016.7,    0.5, -999.0
07-08-2023, 00:42:52,    268,    0.0,   10.3,   0.00,   0.00, 1016.6,    0.4, -999.0
07-08-2023, 00:43:02,    268,    0.0,   10.2,   0.00,   0.00, 1016.7,    0.5, -999.0
07-08-2023, 00:43:12,    268,    0.0,   10.2,   0.00,   0.00, 1016.6,    0.7, -999.0
07-08-2023, 00:43:22,    268,    0.0,   10.2,   0.00,   0.00, 1016.6,    0.8, -999.0
07-08-2023, 00:43:32,    268,    0.0,   10.2,   0.00,   0.00, 1016.7,    0.5, -999.0
07-08-2023, 00:43:42,    268,    0.0,   10.2,   0.00,   0.00, 1016.7,    0.7, -999.0
07-08-2023, 00:43:52,    268,    0.0,   10.2,   0.00,   0.00, 1016.7,    0.5, -999.0
07-08-2023, 00:44:02,    268,    0.0,   10.2,   0.00,   0.00, 1016.7,    0.7, -999.0
07-08-2023, 00:44:12,    268,    0.0,   10.1,   0.00,   0.00, 1016.7,    0.6, -999.0
07-08-2023, 00:44:22,    268,    0.0,   10.2,   0.00,   0.00, 1016.6,    0.7, -999.0
07-08-2023, 00:44:32,    268,    0.0,   10.2,   0.00,   0.00, 1016.7,    0.5, -999.0
07-08-2023, 00:44:42,    268,    0.0,   10.2,   0.00,   0.00, 1016.7,    0.5, -999.0
07-08-2023, 00:44:52,    268,    0.0,   10.2,   0.00,   0.00, 1016.6,    0.7, -999.0
07-08-2023, 00:45:02,    268,    0.0,   10.2,   0.00,   0.00, 1016.7,    0.5, -999.0
07-08-2023, 00:45:12,    268,    0.0,   10.2,   0.00,   0.00, 1016.7,    0.4, -999.0
07-08-2023, 00:45:22,    268,    0.0,   10.2,   0.00,   0.00, 1016.7,    0.5, -999.0
07-08-2023, 00:45:32,    268,    0.0,   10.2,   0.00,   0.00, 1016.7,    0.3, -999.0
07-08-2023, 00:45:42,    268,    0.0,   10.1,   0.00,   0.00, 1016.7,    0.7, -999.0
07-08-2023, 00:45:52,    268,    0.0,   10.1,   0.00,   0.00, 1016.6,    0.6, -999.0
07-08-2023, 00:46:02,    268,    0.0,   10.2,   0.00,   0.00, 1016.7,    0.6, -999.0
07-08-2023, 00:46:12,    268,    0.0,   10.1,   0.00,   0.00, 1016.7,    0.6, -999.0
07-08-2023, 00:46:22,    268,    0.0,   10.2,   0.00,   0.00, 1016.7,    0.6, -999.0
07-08-2023, 00:46:32,    268,    0.0,   10.1,   0.00,   0.00, 1016.7,    0.5, -999.0
07-08-2023, 00:46:42,    268,    0.0,   10.2,   0.00,   0.00, 1016.7,    0.4, -999.0
07-08-2023, 00:46:51,    268,    0.0,   10.2,   0.00,   0.00, 1016.7,    0.4, -999.0